Pagrindinis puslapis
METAR-TAF:

METAR-TAF

Oro uostai :

Alamogordo, Naujoji Meksika, Jungtinės Amerikos Valstijos

platuma: 32-50N, ilguma: 105-59W, Aukštis: 1279 m

Dabartinis oras

Ataskaita buvo paskelbta 14 minutes, ne 12:55 UTC
Vėjas 5 kt iš Pietryčių
Temperatūra 0°C
Drėgmė 59%
Slėgis 1022 hPa
Matomumas: 16.1 km
Giedras dangus

METAR: KALM 301255Z AUTO 14005KT 10SM CLR 00/M07 A3017 RMK AO2

Laikas: 06:09 (13:09 UTC)


TAF: trūkstamas

Orai ataskaitas ir orų prognozės (METAR, TAF).

turimą stotys yra geltonos ir raudonos taškus žemėlapyje.

Perkelti pele per norėdami pamatyti stoties vardą.

Tada spustelėkite, norėdami matyti oro stebėjimo ir prognozės.

Norėdami pakeisti žemėlapį: spustelėkite ant žalios mygtukų su juodo kryžiaus žemyn,; žalią mygtuką su brūkšneliu, jei norite nutolinti; arba žalių rodyklių gretimoms žemėlapius.


METAR-TAF: